[[{"header":{"parameterUnit":"m.s-1","parameterCategory":1,"la1":30.2991,"la2":30.254,"lo1":-89.0895,"lo2":-89.0444,"dy":0.0017,"dx":0.0017,"nx":28,"ny":28,"refTime":"2023-10-09T21:00:00:Z","depth":0,"parameterNumber":2,"parameterNumberName":"U-component_of_WINDS"},"data":[0,0,0,0,0,0,0,0,0,0,0,0,0,0,0,0,0,0,0,0,0,0,0,0,0,0,0,0,0,0,0,0,0,0,0,0,0,0,0,0,0,0,0,0,0,0,0,0,0,0,0,0,0,0,0,0,0,0,-0.1237,-0.1237,0,-0.1172,-0.1171,-0.1171,-0.1128,-0.1128,-0.1128,-0.1128,-0.106,-0.1058,-0.1057,0,0,0,0,0,0,0,0,0,0,0,0,0,-0.1326,-0.1325,-0.1237,-0.1237,-0.1236,-0.1172,-0.1171,-0.117,-0.1128,-0.1128,-0.1128,-0.1128,-0.106,-0.1059,-0.1057,0,0,0,0,0,0,0,0,0,0,0,0,0,-0.1277,-0.1324,-0.1238,-0.1207,-0.1204,-0.1172,-0.1171,-0.117,-0.1129,-0.1128,-0.1128,-0.1127,-0.1061,-0.1059,-0.1057,-0.105,0,0,-0.1049,-0.1048,0,0,0,0,0,0,0,0,-0.128,-0.1274,-0.1213,-0.1209,-0.1205,-0.1158,-0.1178,-0.113,-0.1129,-0.1157,-0.1128,-0.1127,-0.1093,-0.1088,-0.1076,-0.1047,-0.1044,-0.1049,-0.1048,-0.1047,-0.1046,0,0,0,0,0,0,0,-0.1283,-0.1276,-0.1212,-0.1212,-0.1207,-0.1197,-0.119,-0.1168,-0.1128,-0.1155,-0.1151,-0.1144,-0.1091,-0.1079,-0.1075,-0.1043,-0.1049,-0.1047,-0.1046,-0.1045,-0.1006,-0.1006,0,0,0,0,0,0,-0.1292,-0.128,-0.1214,-0.121,-0.1243,-0.1196,-0.1187,-0.1174,-0.1128,-0.1121,-0.1145,-0.1143,-0.1083,-0.1077,-0.1072,-0.1062,-0.1047,-0.1045,-0.1043,-0.1006,-0.1006,-0.1006,0,0,0,0,0,0,-0.1294,-0.1286,-0.1216,-0.1244,-0.1234,-0.1195,-0.1179,-0.1173,-0.116,-0.1121,-0.1113,-0.114,-0.1082,-0.1075,-0.1056,-0.1059,-0.1043,-0.1041,-0.1005,-0.1006,-0.1006,-0.1043,0,0,0,0,0,0,-0.1296,-0.1287,-0.1284,-0.1244,-0.1233,-0.1202,-0.118,-0.1172,-0.1157,-0.1153,-0.1114,-0.1107,-0.1082,-0.106,-0.1054,-0.1056,-0.104,-0.1005,-0.1005,-0.1006,-0.1041,-0.1044,-0.1047,0,0,0,0,0,-0.13,-0.1296,-0.1284,-0.1276,-0.1228,-0.1202,-0.1195,-0.1166,-0.1157,-0.1154,-0.1128,-0.1108,-0.106,-0.1058,-0.1051,-0.1053,-0.1004,-0.1005,-0.1006,-0.1039,-0.1044,-0.1047,0,0,0,0,0,0,-0.1337,-0.129,-0.1276,-0.126,-0.1235,-0.1195,-0.119,-0.1171,-0.1148,-0.1146,-0.1111,-0.1102,-0.1087,-0.1068,-0.1066,-0.1044,-0.103,-0.1029,-0.1058,-0.1061,-0.1065,-0.107,-0.1038,0,0,0,0,0,-0.1344,-0.1326,-0.1286,-0.1276,-0.1264,-0.1229,-0.1217,-0.1196,-0.1169,-0.1159,-0.1132,-0.1106,-0.1085,-0.1072,-0.105,-0.1038,-0.1029,-0.1035,-0.1039,-0.1041,-0.1041,-0.1035,-0.1038,-0.1009,-0.1009,-0.1009,0,0,-0.1357,-0.1329,-0.132,-0.1283,-0.1261,-0.1244,-0.1221,-0.1203,-0.1191,-0.1156,-0.1136,-0.1116,-0.1085,-0.107,-0.1061,-0.1053,-0.1048,-0.1042,-0.1045,-0.1043,-0.1036,-0.1039,-0.1041,-0.101,-0.101,-0.1009,0,0,-0.1372,-0.1349,-0.1338,-0.1317,-0.1285,-0.1262,-0.126,-0.1222,-0.1208,-0.1188,-0.1162,-0.1146,-0.1111,-0.109,-0.1075,-0.1084,-0.1066,-0.1078,-0.1095,-0.1089,-0.1091,-0.1093,-0.1098,-0.11,-0.1078,-0.1079,-0.1079,0,-0.1392,-0.1366,-0.1335,-0.132,-0.1304,-0.1273,-0.1262,-0.1243,-0.1206,-0.1196,-0.1188,-0.1143,-0.112,-0.11,-0.1103,-0.1091,-0.1088,-0.1083,-0.1093,-0.1095,-0.1096,-0.11,-0.1102,-0.108,-0.108,-0.108,-0.108,0,-0.1393,-0.1375,-0.137,-0.1336,-0.132,-0.1307,-0.1275,-0.1262,-0.1244,-0.1222,-0.1203,-0.1174,-0.1147,-0.1141,-0.1122,-0.1119,-0.1115,-0.11,-0.1085,-0.1101,-0.1105,-0.1106,-0.1083,-0.1082,-0.1082,-0.1081,0,0,-0.1429,-0.1379,-0.1378,-0.1362,-0.1325,-0.1311,-0.1297,-0.1271,-0.1262,-0.1237,-0.1226,-0.1197,-0.1184,-0.1167,-0.1146,-0.114,-0.1151,-0.1126,-0.1125,-0.1133,-0.1147,-0.116,-0.1162,-0.1139,-0.1139,-0.1139,-0.1151,0,-0.144,-0.1413,-0.1386,-0.137,-0.1353,-0.1324,-0.1312,-0.1288,-0.1268,-0.1251,-0.1228,-0.1209,-0.1193,-0.1183,-0.1176,-0.1152,-0.1154,-0.115,-0.1128,-0.1127,-0.1138,-0.1163,-0.1175,-0.1188,-0.1151,-0.1152,-0.1152,0,-0.1448,-0.1426,-0.1409,-0.1375,-0.1367,-0.1357,-0.1331,-0.1316,-0.1289,-0.1274,-0.1256,-0.1234,-0.1219,-0.1205,-0.1184,-0.1182,-0.1171,-0.1158,-0.1158,-0.1156,-0.1141,-0.1162,-0.1191,-0.1193,-0.1153,-0.1153,-0.1153,0,-0.1478,-0.1444,-0.1429,-0.1417,-0.1377,-0.1371,-0.1353,-0.1326,-0.1313,-0.129,-0.1282,-0.1258,-0.1245,-0.1228,-0.12,-0.1192,-0.1182,-0.1166,-0.1171,-0.1172,-0.117,-0.1171,-0.1199,-0.1162,-0.1162,-0.1162,-0.1162,0,-0.1494,-0.1484,-0.1443,-0.1434,-0.1423,-0.1392,-0.1382,-0.1362,-0.1338,-0.1325,-0.1298,-0.1286,-0.125,-0.1235,-0.1213,-0.12,-0.1193,-0.1182,-0.1177,-0.1185,-0.1187,-0.1178,-0.1177,-0.1162,-0.1162,-0.1162,-0.1162,0,-0.1525,-0.1497,-0.148,-0.1443,-0.1434,-0.1428,-0.1396,-0.1387,-0.1365,-0.135,-0.1344,-0.131,-0.1291,-0.1261,-0.1233,-0.1218,-0.1209,-0.1199,-0.1218,-0.1215,-0.1222,-0.1222,-0.1246,-0.1248,-0.1209,-0.121,-0.121,0,-0.1537,-0.153,-0.1493,-0.1483,-0.1467,-0.145,-0.1437,-0.1406,-0.1393,-0.1363,-0.1357,-0.1336,-0.1317,-0.1287,-0.126,-0.1239,-0.1229,-0.1239,-0.1226,-0.1235,-0.1231,-0.1232,-0.1232,-0.1242,-0.1243,-0.1243,-0.1244,0,-0.1562,-0.1549,-0.1531,-0.1508,-0.1493,-0.1474,-0.1453,-0.1446,-0.1411,-0.1398,-0.1378,-0.1364,-0.1335,-0.1315,-0.129,-0.1272,-0.1253,-0.1248,-0.1248,-0.1257,-0.1269,-0.1265,-0.1228,-0.1248,-0.1247,-0.1247,-0.1247,-0.1247,-0.1585,-0.1578,-0.1551,-0.1532,-0.1514,-0.1495,-0.1485,-0.1463,-0.1446,-0.1421,-0.1403,-0.1385,-0.1359,-0.1324,-0.1308,-0.1293,-0.1284,-0.1284,-0.1284,-0.1285,-0.1289,-0.1271,-0.1288,-0.1288,-0.1288,-0.1288,-0.1287,0,-0.161,-0.1591,-0.1574,-0.1547,-0.1532,-0.1515,-0.1492,-0.1481,-0.1465,-0.1443,-0.1426,-0.1404,-0.1384,-0.1356,-0.1334,-0.1328,-0.1319,-0.1323,-0.1324,-0.1321,-0.1297,-0.13,-0.1332,-0.1332,-0.1332,-0.1332,-0.1332,-0.1332,-0.1621,-0.1608,-0.1591,-0.1569,-0.1551,-0.1533,-0.1521,-0.1505,-0.1487,-0.1464,-0.1448,-0.143,-0.1405,-0.1382,-0.1364,-0.1356,-0.135,-0.1358,-0.1348,-0.1326,-0.1322,-0.1318,-0.1321,-0.1356,-0.1356,-0.1372,-0.1373,-0.1373]},{"header":{"parameterUnit":"m.s-1","parameterCategory":1,"la1":30.2991,"la2":30.254,"lo1":-89.0895,"lo2":-89.0444,"dy":0.0017,"dx":0.0017,"nx":28,"ny":28,"refTime":"2023-10-09T21:00:00:Z","depth":0,"parameterNumber":3,"parameterNumberName":"V-component_of_WINDS"},"data":[0,0,0,0,0,0,0,0,0,0,0,0,0,0,0,0,0,0,0,0,0,0,0,0,0,0,0,0,0,0,0,0,0,0,0,0,0,0,0,0,0,0,0,0,0,0,0,0,0,0,0,0,0,0,0,0,0,0,2.2987,2.2986,0,2.2929,2.2928,2.2928,2.2943,2.2944,2.2945,2.2946,2.2879,2.2876,2.2874,0,0,0,0,0,0,0,0,0,0,0,0,0,2.3104,2.3102,2.2987,2.2986,2.2986,2.2929,2.2928,2.2928,2.2943,2.2944,2.2945,2.2947,2.288,2.2877,2.2873,0,0,0,0,0,0,0,0,0,0,0,0,0,2.305,2.3101,2.2987,2.2986,2.2986,2.2929,2.2928,2.2927,2.2942,2.2944,2.2946,2.2947,2.2881,2.2877,2.2873,2.2811,0,0,2.286,2.2858,0,0,0,0,0,0,0,0,2.3053,2.3046,2.2987,2.2986,2.2986,2.2945,2.2945,2.2888,2.2942,2.2959,2.2946,2.2948,2.2899,2.2893,2.2879,2.2808,2.2805,2.2859,2.2857,2.2855,2.2854,0,0,0,0,0,0,0,2.3057,2.3048,2.2964,2.2986,2.2985,2.2987,2.2981,2.2934,2.2919,2.2957,2.2958,2.2952,2.2899,2.2883,2.2877,2.2804,2.2859,2.2856,2.2853,2.2851,2.2679,2.2677,0,0,0,0,0,0,2.3062,2.3051,2.2966,2.2962,2.3025,2.2983,2.2977,2.2956,2.292,2.2916,2.295,2.2952,2.2889,2.2882,2.2875,2.2799,2.2855,2.2851,2.2848,2.2681,2.2679,2.2677,0,0,0,0,0,0,2.3065,2.3055,2.2968,2.3007,2.2996,2.298,2.2956,2.2954,2.2938,2.2915,2.2912,2.2937,2.289,2.2881,2.2827,2.2797,2.2849,2.2845,2.2684,2.268,2.2678,2.2648,0,0,0,0,0,0,2.3068,2.3055,2.3033,2.3007,2.2994,2.2923,2.2954,2.2952,2.2931,2.2934,2.2901,2.2897,2.2891,2.2834,2.2823,2.2792,2.2842,2.2686,2.2682,2.2679,2.2652,2.2645,2.2639,0,0,0,0,0,2.3072,2.3026,2.3032,2.3021,2.2966,2.2922,2.2914,2.291,2.2929,2.2905,2.2891,2.2898,2.2803,2.2828,2.2816,2.2784,2.2688,2.2683,2.2679,2.2655,2.2646,2.2639,0,0,0,0,0,0,2.3046,2.3022,2.3029,2.2973,2.2949,2.2924,2.2894,2.2901,2.287,2.2873,2.2867,2.2859,2.2804,2.2789,2.2817,2.2722,2.2748,2.2741,2.2733,2.2725,2.2719,2.2722,2.2838,0,0,0,0,0,2.3034,2.3002,2.2982,2.2934,2.2923,2.2911,2.2891,2.289,2.2864,2.2854,2.2835,2.2808,2.2772,2.2748,2.2714,2.2651,2.2643,2.2622,2.2616,2.2611,2.2604,2.2568,2.2558,2.2662,2.2662,2.2662,0,0,2.3008,2.2991,2.2971,2.2929,2.2911,2.2875,2.2902,2.2863,2.2836,2.2847,2.2796,2.2781,2.2751,2.2692,2.2665,2.2677,2.2574,2.2605,2.2601,2.2597,2.2563,2.2553,2.2544,2.2659,2.266,2.266,0,0,2.2943,2.2928,2.2886,2.2868,2.2842,2.2834,2.2824,2.2799,2.279,2.2739,2.2747,2.2714,2.2652,2.263,2.261,2.2538,2.2543,2.2527,2.2491,2.2457,2.2449,2.2441,2.2414,2.2405,2.2521,2.2521,2.2521,0,2.2913,2.2863,2.2863,2.2825,2.2805,2.2817,2.2773,2.2755,2.2717,2.2702,2.2718,2.2641,2.2621,2.2557,2.254,2.2524,2.2511,2.2529,2.2451,2.2443,2.2436,2.241,2.24,2.2519,2.2519,2.2519,2.252,0,2.2827,2.2792,2.2761,2.2727,2.2704,2.2663,2.2656,2.2632,2.2634,2.2624,2.2572,2.2549,2.251,2.2495,2.2495,2.2431,2.2439,2.2453,2.2478,2.2424,2.24,2.239,2.2516,2.2517,2.2517,2.2518,0,0,2.274,2.271,2.2698,2.2683,2.2655,2.2627,2.2586,2.2551,2.253,2.2504,2.2468,2.2417,2.2429,2.2407,2.2405,2.2375,2.2318,2.2392,2.2391,2.2377,2.2244,2.2232,2.2221,2.2323,2.2321,2.2319,2.2246,0,2.2671,2.2602,2.2602,2.2537,2.2503,2.2515,2.2479,2.2457,2.2447,2.2416,2.2404,2.2368,2.2388,2.2375,2.2346,2.2331,2.229,2.2337,2.2286,2.2284,2.2291,2.2208,2.2196,2.2127,2.2236,2.2234,2.2233,0,2.2581,2.2555,2.2487,2.2465,2.2451,2.2419,2.2386,2.2357,2.2332,2.2327,2.2304,2.2306,2.2263,2.2292,2.223,2.2262,2.2241,2.2231,2.2228,2.2221,2.2254,2.2197,2.2105,2.2094,2.2218,2.222,2.2221,0,2.2522,2.247,2.2423,2.241,2.2383,2.236,2.2348,2.2325,2.2304,2.2275,2.2261,2.2226,2.2207,2.2179,2.2172,2.2194,2.2109,2.2138,2.2102,2.2102,2.2081,2.2082,2.1983,2.2072,2.2072,2.2072,2.2072,0,2.2444,2.2401,2.2397,2.2367,2.232,2.232,2.2272,2.2261,2.2241,2.2208,2.2216,2.2184,2.2177,2.2144,2.2138,2.2087,2.2078,2.2071,2.2069,2.2069,2.207,2.2054,2.2057,2.207,2.207,2.2071,2.2071,0,2.2369,2.2365,2.2314,2.2294,2.2288,2.2254,2.2235,2.2206,2.2199,2.2157,2.2147,2.2134,2.2095,2.2086,2.2039,2.2035,2.1974,2.1978,2.1983,2.1982,2.1945,2.1948,2.1831,2.1815,2.1916,2.1915,2.1914,0,2.2318,2.2286,2.2264,2.2244,2.2231,2.2198,2.2177,2.2176,2.2154,2.2124,2.2098,2.2061,2.203,2.1967,2.1952,2.1916,2.1917,2.1879,2.1912,2.1912,2.1914,2.1915,2.1911,2.1872,2.187,2.187,2.1869,0,2.2227,2.2227,2.2199,2.2169,2.2145,2.2121,2.2098,2.208,2.2076,2.205,2.2012,2.1989,2.1943,2.1904,2.1869,2.1853,2.1859,2.1859,2.1849,2.1846,2.185,2.1846,2.1963,2.1861,2.1862,2.1863,2.1863,2.1863,2.2161,2.2134,2.2114,2.2081,2.2065,2.2044,2.2016,2.2006,2.1975,2.1939,2.194,2.1897,2.1873,2.1826,2.1808,2.1774,2.1785,2.177,2.1766,2.1761,2.1757,2.1858,2.1767,2.1768,2.1768,2.1768,2.1768,0,2.2069,2.2058,2.2029,2.1998,2.1972,2.1984,2.196,2.1936,2.19,2.1878,2.185,2.1805,2.1769,2.1752,2.1715,2.1691,2.1692,2.1681,2.1681,2.1677,2.175,2.1762,2.168,2.168,2.168,2.168,2.168,2.168,2.2018,2.1972,2.197,2.1914,2.1903,2.1864,2.1848,2.1828,2.1811,2.1762,2.1733,2.1723,2.1703,2.1665,2.1631,2.1627,2.1612,2.1599,2.1595,2.1663,2.1672,2.1681,2.1692,2.1596,2.1596,2.1525,2.1525,2.1524]}]]